FW9766 Weather Reports


Display with metric or nautical units.
time (UTC)temp
F
wind
direction
speed
MPH
gust
MPH
rain 1hr
in
rain 24hr
in
rain mn
in
humidity
%
barometer
mb
20260506123043 71 72 2.0 7.0 0.00 0.00 0.00 97 1010.0
20260506121541 71 139 3.0 10.0 0.00 0.00 0.00 97 1010.0
20260506120048 71 36 1.0 4.0 0.00 0.00 0.00 97 1009.9
20260506114550 71 53 1.0 5.0 0.00 0.00 0.00 97 1009.9
20260506113045 71 0 2.0 8.0 0.00 0.00 0.00 97 1010.0
20260506111544 71 65 1.0 6.0 0.00 0.00 0.00 97 1010.2
20260506110045 71 90 0.0 8.0 0.00 0.00 0.00 97 1010.3
20260506104606 71 68 1.0 9.0 0.00 0.00 0.00 97 1010.0
20260506103047 71 91 4.0 11.0 0.00 0.00 0.00 97 1010.1
20260506101549 71 47 3.0 9.0 0.00 0.00 0.00 97 1010.2
20260506100046 72 82 2.0 11.0 0.00 0.00 0.00 96 1010.0
20260506094544 72 98 2.0 8.0 0.00 0.00 0.00 96 1010.0
20260506093041 72 68 2.0 8.0 0.00 0.00 0.00 96 1010.0
20260506091541 72 85 3.0 9.0 0.00 0.00 0.00 96 1009.9
20260506090049 72 87 3.0 13.0 0.00 0.00 0.00 96 1009.8
20260506084547 72 99 4.0 11.0 0.00 0.00 0.00 95 1009.6
20260506083048 72 31 3.0 11.0 0.00 0.00 0.00 95 1009.5
20260506081545 72 60 3.0 10.0 0.00 0.00 0.00 95 1009.5
20260506073050 73 79 6.0 13.0 0.00 0.00 0.00 93 1009.7
20260506071547 73 97 6.0 16.0 0.00 0.00 0.00 93 1009.9
20260506061547 74 119 3.0 10.0 0.00 0.00 0.00 93 1010.3
20260506044603 71 0 0.0 0.0 0.00 0.00 0.00 91 1010.3
20260506043055 71 0 0.0 0.0 0.00 0.00 0.00 90 1010.2
20260506041548 72 0 0.0 0.0 0.00 0.00 0.00 89 1010.1
20260506040051 72 0 0.0 0.0 0.00 0.00 0.00 89 1009.9
20260506034544 73 0 0.0 0.0 0.00 0.00 0.00 88 1009.7
20260506033048 74 0 0.0 0.0 0.00 0.00 0.00 87 1009.6
20260506031550 74 0 1.0 4.0 0.00 0.00 0.00 87 1009.4
20260506030114 74 0 0.0 2.0 0.00 0.00 0.00 86 1009.2
20260506024548 74 0 0.0 2.0 0.00 0.00 0.00 86 1008.8
20260506023048 75 0 0.0 2.0 0.00 0.00 0.00 85 1008.7
20260506021553 75 0 0.0 7.0 0.00 0.00 0.00 84 1008.6
20260506020048 76 0 0.0 0.0 0.00 0.00 0.00 83 1008.3
20260506014547 77 0 0.0 1.0 0.00 0.00 0.00 81 1008.1
20260506013048 78 0 0.0 2.0 0.00 0.00 0.00 79 1008.0
20260506011550 79 0 0.0 4.0 0.00 0.00 0.00 78 1007.5
20260506010053 80 91 0.0 5.0 0.00 0.00 0.00 76 1007.4
20260506004548 81 25 2.0 8.0 0.00 0.00 0.00 74 1007.4
20260506003048 82 75 3.0 8.0 0.00 0.00 0.00 73 1007.6
20260506001551 83 80 3.0 8.0 0.00 0.00 0.00 72 1007.6
20260506000049 83 89 2.0 8.0 0.00 0.00 0.00 71 1007.6
20260505234606 83 78 4.0 8.0 0.00 0.00 0.00 68 1007.5
20260505233048 84 121 3.0 9.0 0.00 0.00 0.00 69 1007.6
20260505231542 84 90 4.0 10.0 0.00 0.00 0.00 68 1007.5
20260505230049 84 95 3.0 10.0 0.00 0.00 0.00 68 1007.4
20260505224548 83 62 3.0 8.0 0.00 0.00 0.00 70 1007.5
20260505223102 83 103 4.0 10.0 0.00 0.00 0.00 70 1007.6
20260505221545 83 131 2.0 10.0 0.00 0.00 0.00 70 1007.6
20260505220049 83 96 5.0 11.0 0.00 0.00 0.00 68 1007.6
20260505214553 84 132 5.0 10.0 0.00 0.00 0.00 68 1007.8
20260505213048 84 129 7.0 16.0 0.00 0.00 0.00 67 1007.9
20260505211556 84 111 3.0 12.0 0.00 0.00 0.00 69 1007.9
20260505210047 84 114 5.0 14.0 0.00 0.00 0.00 68 1008.1
20260505204546 84 127 6.0 14.0 0.00 0.00 0.00 69 1008.3
20260505203100 84 111 5.0 13.0 0.00 0.00 0.00 71 1008.4
20260505201540 83 99 6.0 11.0 0.00 0.00 0.00 70 1008.5
20260505200048 82 166 8.0 12.0 0.00 0.00 0.00 70 1008.8
20260505194547 82 100 4.0 9.0 0.00 0.00 0.00 72 1009.1
20260505193045 81 137 6.0 12.0 0.00 0.00 0.00 74 1009.1
20260505191551 80 117 5.0 14.0 0.00 0.00 0.00 75 1009.2
20260505190046 80 121 6.0 14.0 0.00 0.00 0.00 75 1009.4
20260505184552 79 131 6.0 13.0 0.00 0.00 0.00 76 1009.6
20260505183048 79 113 3.0 10.0 0.00 0.00 0.00 76 1009.9
20260505181544 78 130 6.0 12.0 0.00 0.00 0.00 78 1010.1
20260505180048 77 87 6.0 11.0 0.00 0.00 0.00 80 1010.2
20260505174543 76 120 5.0 11.0 0.00 0.00 0.00 81 1010.5
20260505173047 75 133 4.0 10.0 0.00 0.00 0.00 84 1010.7
20260505171547 73 163 4.0 10.0 0.00 0.00 0.00 84 1010.7
20260505170047 73 123 5.0 11.0 0.00 0.00 0.00 85 1010.6
20260505164548 72 132 6.0 11.0 0.00 0.00 0.00 87 1010.6
20260505163043 71 95 6.0 13.0 0.00 0.00 0.00 88 1010.6
20260505161543 71 111 3.0 11.0 0.00 0.00 0.00 90 1010.4
20260505153051 69 92 3.0 9.0 0.00 0.00 0.00 93 1010.4
20260505151547 68 109 6.0 11.0 0.00 0.00 0.00 93 1010.4
20260505124546 67 119 6.0 12.0 0.00 0.00 0.00 96 1009.8